Theta_e
307 306 307 307 308 307 308 308 308 308 308 308 308 308 303 300 300 305 305 302 303 302 303 304 310 319 323 327 322 318 321 321 319 319 319 323 325 327 326 330 328 329 331 330 331
306 307 307 307 307 307 307 307 308 308 308 308 308 308 307 306 307 306 310 310 305 306 311 310 308 319 324 323 328 322 324 322 319 319 321 320 323 325 326 327 327 329 328 327 327
306 306 307 306 307 307 307 307 307 307 308 308 308 308 308 307 305 302 315 311 303 305 311 312 312 314 320 318 326 327 325 322 320 318 320 321 321 322 325 326 327 328 326 326 326
305 306 305 304 305 306 306 306 306 308 309 310 309 308 307 305 301 308 312 307 307 307 314 317 314 311 314 321 321 323 325 325 323 319 319 319 319 320 321 323 325 326 328 327 327
305 304 302 299 300 300 303 305 306 307 310 310 308 307 305 307 305 304 307 308 307 307 305 314 312 312 312 314 319 323 322 324 325 325 322 323 325 325 327 327 329 330 330 330 329
305 304 301 299 299 300 303 306 306 306 309 308 308 307 306 306 304 306 308 309 307 306 306 308 315 311 313 313 315 318 321 322 323 328 329 329 329 329 329 328 328 328 328 328 327
305 305 304 303 301 301 303 306 306 306 307 307 308 308 307 307 304 306 308 308 308 306 307 306 305 313 312 312 313 314 316 318 321 323 326 327 329 329 327 327 327 327 327 327 327
304 304 304 303 300 301 304 306 306 306 308 308 309 308 309 306 306 307 307 307 307 305 306 306 304 306 314 313 312 314 315 317 318 317 320 322 325 325 324 324 325 325 326 327 327
304 304 303 304 303 303 306 307 305 306 308 309 309 309 309 306 307 306 306 307 307 306 306 306 306 306 310 314 314 314 316 317 317 318 318 320 323 323 323 324 326 327 327 326 326
304 304 303 303 302 304 306 304 306 308 310 309 310 309 307 307 306 306 307 307 307 307 308 307 307 309 309 314 316 314 315 315 317 317 318 319 321 322 323 323 324 325 325 325 325
303 304 304 302 302 305 305 306 307 307 306 306 306 306 306 305 306 307 307 307 307 307 309 307 307 307 309 311 313 314 314 316 316 317 318 319 320 321 320 321 322 322 323 323 324
303 302 304 300 303 306 306 307 307 306 308 306 306 305 305 305 306 307 306 307 306 307 307 307 307 307 307 308 311 313 313 314 314 315 316 319 320 319 319 319 320 321 321 321 322
300 303 303 300 304 306 306 306 306 306 307 307 306 305 307 306 306 306 307 307 307 306 307 309 308 306 307 308 310 311 313 314 314 315 315 316 319 319 319 319 319 319 320 320 322
298 305 305 301 305 304 306 306 306 304 309 305 307 306 306 307 307 306 307 308 307 307 306 307 308 306 307 307 309 311 311 312 314 315 318 316 319 319 319 319 318 319 319 320 320
299 304 305 305 304 306 306 306 305 303 306 305 306 306 306 306 306 305 307 308 309 309 309 309 307 306 307 307 307 309 310 310 311 312 314 315 317 317 317 317 318 319 318 319 320
299 304 303 303 304 305 307 306 304 306 304 306 306 306 307 306 305 306 307 307 309 310 310 310 309 308 307 306 306 307 309 310 311 312 314 314 315 317 316 317 317 317 317 318 318
302 306 303 304 306 307 306 304 307 306 305 307 307 307 307 306 305 306 307 307 312 313 313 311 311 310 309 307 307 307 308 310 311 314 315 313 314 316 316 316 316 317 317 318 319
304 307 304 305 307 307 302 304 305 306 307 307 307 307 308 305 306 306 307 307 310 313 316 316 315 308 309 308 307 307 308 310 309 311 312 311 314 315 315 316 317 316 318 319 320
304 307 307 308 308 306 306 308 306 307 307 308 308 308 307 305 307 307 307 307 309 311 312 315 312 310 311 311 308 308 308 309 310 311 311 311 312 313 313 315 316 317 320 324 325
304 305 307 306 306 304 307 308 307 306 307 308 309 309 309 308 308 307 307 307 308 308 310 311 313 310 310 310 311 310 309 309 309 310 311 312 312 313 314 314 317 319 323 327 336
303 310 306 305 305 307 310 307 307 306 307 309 309 309 309 310 308 308 307 306 309 308 309 310 311 309 309 310 312 312 312 310 310 310 312 314 315 316 317 316 317 317 322 333 337
303 310 305 304 308 303 307 306 305 307 308 308 310 310 310 309 309 309 308 307 308 308 309 310 313 312 308 308 309 309 310 312 313 311 310 311 313 315 316 315 316 316 317 327 336
304 305 304 302 309 307 305 305 305 307 308 308 310 309 309 310 311 310 308 307 307 308 309 310 311 311 308 312 311 310 310 312 314 313 314 312 312 314 314 314 316 316 316 320 336
305 307 305 303 302 304 305 306 305 306 308 309 309 309 310 309 309 311 309 308 307 308 309 310 311 310 311 309 310 311 311 311 312 315 313 313 313 313 313 315 315 316 317 321 337
300 304 303 305 302 301 303 305 306 307 308 307 309 309 312 312 309 310 308 309 308 308 310 310 311 310 310 310 310 310 310 311 311 311 314 313 313 313 314 316 315 316 318 319 332
301 302 301 302 301 304 304 305 306 307 305 306 308 308 309 309 309 310 309 309 312 310 311 311 313 310 310 309 308 308 308 309 310 311 312 312 313 313 314 314 315 315 316 319 329
299 298 301 302 302 303 304 304 303 303 304 307 307 308 308 308 308 308 308 309 309 310 310 312 313 312 310 308 308 310 309 309 309 310 311 312 311 311 313 315 316 319 322 323 330
Wind_Speed
17 17 17 18 19 19 19 19 18 18 17 17 18 20 22 23 27 19 7 5 7 15 17 12 5 3 5 6 5 4 7 12 14 12 8 1 4 2 3 6 4 3 3 5 7
17 17 18 18 18 19 20 21 19 18 17 17 17 18 20 21 20 12 7 7 9 11 7 3 5 9 5 7 7 10 10 16 10 14 8 13 9 4 3 4 4 2 8 8 7
16 18 18 19 19 19 19 18 18 18 17 17 16 17 18 17 6 0 10 15 14 14 8 3 4 5 13 7 12 11 19 20 16 16 12 15 12 4 6 11 12 5 2 7 16
18 18 19 20 21 20 19 17 17 17 17 15 15 15 15 6 4 2 5 19 19 16 3 1 6 7 10 18 15 14 19 21 16 6 9 18 15 17 16 19 11 15 12 10 11
20 20 21 22 23 21 18 16 18 19 15 11 10 9 6 3 6 5 16 16 10 12 3 3 9 11 14 11 18 23 23 16 21 14 12 10 22 20 21 19 18 20 20 18 15
21 21 22 22 22 19 16 15 18 18 12 6 3 1 1 5 8 13 17 11 11 7 4 2 4 8 9 13 18 11 21 23 17 15 19 18 26 19 22 14 16 16 19 18 16
22 23 23 22 23 20 18 16 18 14 13 8 2 4 2 6 9 17 15 9 8 3 2 4 8 8 2 12 10 16 20 15 16 23 16 9 22 34 22 22 22 25 21 22 21
23 24 23 23 21 19 17 16 18 15 6 4 6 2 5 9 15 17 13 13 9 7 2 3 4 6 8 8 8 11 15 22 25 14 10 17 30 37 21 21 26 25 22 21 21
24 24 23 23 20 19 16 16 14 8 4 4 3 1 5 14 10 15 10 8 11 6 4 4 6 7 6 13 9 13 21 26 22 23 17 19 31 28 22 16 19 19 17 15 17
24 25 23 23 18 16 17 14 7 5 4 2 2 3 4 11 17 23 11 12 7 8 4 2 5 9 12 13 20 17 20 20 21 13 21 25 33 22 13 12 18 17 17 18 20
25 26 26 23 18 10 18 4 4 1 3 4 7 5 15 13 21 6 10 4 4 5 6 1 8 16 18 19 20 16 9 21 18 10 21 25 28 24 21 23 25 23 22 22 22
26 27 26 21 15 5 8 5 5 3 8 7 12 10 16 9 6 11 2 2 2 10 5 5 15 14 12 13 17 21 20 12 9 10 7 15 21 18 17 19 20 22 22 23 23
29 26 25 20 6 3 3 7 2 5 3 7 5 4 4 10 6 9 2 3 5 9 12 15 15 7 10 16 18 17 22 21 11 10 14 14 23 23 21 20 21 23 24 23 22
31 26 23 16 1 5 1 4 7 6 3 3 2 1 7 14 5 19 3 6 3 7 8 13 13 12 15 12 18 18 10 13 19 15 13 4 12 13 12 17 17 18 19 21 21
34 27 19 7 6 2 1 7 4 5 4 7 2 4 14 4 9 5 8 2 10 13 7 19 14 10 15 13 12 17 15 11 6 9 12 20 12 19 14 22 19 17 19 22 22
37 24 11 2 4 1 8 6 4 2 4 3 4 11 17 8 13 7 10 10 9 10 14 22 20 14 16 13 9 10 16 17 15 11 14 18 11 23 18 21 20 23 20 18 18
34 12 3 6 1 7 10 2 2 3 5 4 8 12 17 5 12 12 16 12 5 6 9 13 16 11 16 16 11 9 11 9 11 13 18 6 13 23 3 9 12 9 13 16 14
26 5 3 3 8 10 3 1 3 1 4 6 8 18 4 6 10 12 11 10 1 1 7 4 4 3 12 20 18 14 15 9 16 14 19 13 12 8 9 10 11 12 14 13 13
18 4 3 8 4 6 1 0 1 2 4 8 15 5 3 2 8 8 12 8 3 1 4 5 2 6 5 6 13 13 10 19 6 4 11 12 19 17 16 16 10 11 10 15 15
12 4 4 7 5 3 1 2 2 3 8 7 5 3 6 9 9 7 7 4 6 5 2 2 6 2 7 9 4 8 5 10 9 6 8 9 18 9 7 7 3 12 17 18 18
5 0 7 7 2 3 2 3 5 6 9 4 5 8 7 10 6 8 6 11 2 10 9 6 3 3 5 6 7 9 7 6 7 11 3 3 3 2 6 11 11 14 17 17 15
6 1 10 5 1 1 1 5 7 6 1 5 6 10 11 11 8 8 7 5 9 8 10 4 3 5 10 8 7 7 4 9 8 17 10 8 5 4 12 10 15 18 18 20 11
5 3 7 5 2 3 4 5 4 5 6 4 5 4 6 6 7 8 9 7 11 9 4 3 1 6 7 4 4 1 3 2 5 6 12 12 6 9 7 19 17 21 21 18 10
3 3 3 4 1 2 6 4 6 5 10 4 7 9 5 6 9 6 15 9 8 11 11 5 6 10 9 8 8 10 10 8 5 8 13 16 23 26 20 19 22 23 18 18 9
3 2 2 4 2 8 4 5 9 6 2 7 3 7 7 6 16 18 13 14 12 9 8 4 9 11 14 15 14 17 19 17 14 14 11 13 24 23 17 19 21 19 17 17 9
2 2 2 4 7 6 3 3 7 5 5 10 12 14 15 15 18 23 21 14 8 4 9 7 7 10 12 16 17 20 20 20 19 18 18 20 29 20 22 21 19 22 19 18 12
0 1 2 3 3 3 3 4 9 15 10 11 14 15 16 18 15 20 20 22 17 10 5 4 4 5 11 8 9 13 22 24 19 17 16 20 24 22 20 18 17 17 16 19 14
Wind_Direction
4 2 357 353 349 345 340 338 336 335 333 332 330 326 325 331 322 323 283 264 304 317 308 301 289 218 230 222 198 160 221 237 230 213 229 306 255 262 323 272 293 189 110 59 126
0 355 352 349 344 340 338 334 332 331 329 325 323 321 319 328 319 297 35 40 1 341 309 271 226 199 207 214 198 206 218 226 222 218 225 244 245 269 300 273 265 250 86 98 84
354 351 348 344 341 339 337 333 331 331 328 324 320 318 324 330 298 166 131 357 4 357 277 256 227 224 223 211 205 216 233 229 227 224 224 244 263 250 254 268 252 234 329 324 313
350 349 347 345 344 340 339 338 339 331 322 317 315 318 329 336 349 68 252 316 330 339 0 238 204 194 225 220 213 241 235 243 249 227 225 241 265 253 244 251 265 284 289 281 266
348 348 349 350 351 349 349 347 350 338 320 312 315 332 351 316 257 316 327 336 4 15 359 286 222 217 226 223 230 236 238 240 245 246 240 263 262 258 265 266 274 278 281 275 263
346 344 346 349 350 349 348 346 351 351 348 332 303 157 32 337 316 320 326 341 357 19 10 251 235 246 273 246 227 240 242 246 246 242 243 247 261 268 256 242 260 276 275 271 273
342 341 340 341 342 346 345 343 342 336 331 349 22 167 216 245 316 317 309 298 311 333 352 246 245 248 292 257 259 258 258 248 236 234 236 200 269 251 249 258 261 264 268 277 273
340 339 339 340 343 345 347 345 343 339 339 4 122 139 260 307 319 320 315 296 277 264 281 241 227 281 231 298 272 234 233 243 233 216 228 193 250 255 254 254 257 260 261 261 265
338 338 337 336 336 340 345 343 335 347 40 66 102 0 301 323 328 330 315 280 296 261 236 161 150 209 212 225 257 225 238 229 242 219 217 201 244 253 257 261 256 259 262 265 266
338 337 335 333 338 343 348 346 24 90 76 81 101 269 261 328 319 314 296 278 266 279 120 204 202 223 216 209 223 235 241 255 245 220 218 224 244 250 245 263 259 255 264 268 270
340 336 336 336 343 358 4 31 8 300 27 269 286 280 281 293 309 280 305 253 249 249 244 205 247 231 234 232 241 260 313 256 252 226 225 228 245 244 246 252 259 263 264 266 266
341 337 335 338 340 22 30 87 104 311 310 276 263 245 270 273 287 310 204 292 254 265 201 210 249 260 261 248 240 245 252 260 273 259 245 246 256 257 253 253 258 264 265 265 271
344 336 335 336 341 29 56 148 148 349 267 297 257 256 313 320 291 318 240 301 265 275 256 247 256 262 249 242 241 237 241 242 254 287 275 274 271 259 253 252 257 259 262 266 264
343 333 329 335 91 340 210 179 305 176 268 280 350 196 345 322 247 317 246 298 256 289 278 249 254 241 246 245 236 240 229 233 234 243 249 213 271 254 245 255 246 257 257 259 262
345 330 321 310 294 253 135 312 325 168 298 340 329 322 332 316 294 329 337 266 271 277 277 268 270 248 238 239 224 241 229 248 262 256 258 253 269 265 247 261 258 258 259 256 254
347 334 315 211 212 266 330 321 150 225 262 342 320 335 341 326 329 299 319 313 287 279 268 268 259 247 244 250 233 246 212 218 240 250 246 243 239 275 253 261 265 255 263 265 270
348 348 58 156 58 337 345 137 250 223 350 338 327 329 326 305 334 328 326 318 313 321 309 302 249 240 226 250 241 229 215 190 211 217 238 238 213 242 157 309 283 271 284 288 281
349 2 58 10 317 315 354 164 225 30 296 313 321 316 300 345 330 329 317 318 52 249 292 290 335 202 215 220 229 223 213 215 213 212 236 207 231 245 260 255 293 282 285 292 291
352 12 57 352 352 349 336 113 218 273 293 314 317 303 314 274 331 327 317 294 338 2 356 303 309 319 279 288 224 210 210 226 297 244 224 200 243 267 268 268 283 320 321 325 315
347 349 27 351 340 1 51 291 247 242 316 309 290 266 297 316 317 330 306 264 321 359 292 221 292 259 305 350 294 241 218 189 215 223 207 212 233 235 186 246 356 358 346 337 329
12 198 4 344 352 46 52 289 297 291 314 297 278 282 278 300 294 308 271 292 307 329 333 299 240 290 288 179 227 298 254 210 247 237 279 270 164 214 120 68 28 358 357 346 344
352 280 358 18 358 37 338 322 314 299 23 287 271 270 269 285 282 282 250 266 327 341 322 331 307 289 283 289 263 266 290 238 244 224 240 284 273 125 105 39 360 351 349 355 351
347 294 356 3 26 339 311 280 268 293 314 302 277 285 303 288 296 255 273 292 294 296 289 343 274 308 302 195 109 133 263 270 290 267 253 244 247 156 284 329 337 336 338 344 348
339 329 1 44 41 344 331 280 314 260 284 254 275 295 275 279 258 279 284 295 283 288 286 268 248 252 259 302 319 297 285 267 260 259 247 237 266 268 296 320 325 327 338 341 337
9 38 2 316 346 314 295 275 293 293 276 299 269 229 280 285 300 279 287 290 289 285 274 253 254 246 260 274 276 275 275 272 259 250 254 261 257 269 288 307 316 314 321 326 320
5 347 357 286 295 296 295 273 303 328 317 296 270 295 295 284 284 289 290 278 249 231 239 218 238 217 250 258 264 270 267 263 260 258 253 253 263 273 285 287 296 300 306 313 318
316 154 252 279 300 296 287 312 304 318 289 248 293 300 295 291 300 286 279 274 258 252 230 231 203 215 256 268 280 273 251 246 254 250 243 244 254 260 269 277 284 295 301 301 300